Location: Unspecified
(0.0000°N, 0.0000°E)
Time: 05:52:27
(UTC+01:00)

NATO 3D Rocket - Visible Passes

Search period start: 30 January 2015 00:00
Search period end: 09 February 2015 00:00
Orbit: 670 x 2297 km, 21.5° (Epoch: 26 January)

Date Brightness Start Highest point End Pass type
(mag) Time Alt. Az. Time Alt. Az. Time Alt. Az.
30 Jan 6.3 03:34:10 28° SE 03:34:10 28° SE 03:39:07 10° SE visible
30 Jan 6.3 05:29:43 16° SW 05:35:42 29° S 05:45:41 10° SE visible
31 Jan 5.9 04:36:15 29° SSW 04:37:21 30° S 04:46:26 10° SE visible
31 Jan 6.8 06:36:08 10° SW 06:44:19 25° S 06:54:19 10° SE visible
01 Feb 6.3 03:42:48 24° SSE 03:42:48 24° SSE 03:47:32 10° SE visible
01 Feb 6.6 05:38:32 10° SW 05:45:36 23° S 05:54:29 10° SE visible
02 Feb 6.2 04:44:56 20° SSW 04:47:15 23° S 04:54:58 10° SE visible
02 Feb 6.8 06:46:18 10° SW 06:54:13 24° S 07:03:59 10° SE visible
03 Feb 6.4 03:51:30 20° SSE 03:51:30 20° SSE 03:55:54 10° SE visible
03 Feb 6.6 05:49:00 10° SW 05:55:33 21° S 06:03:44 10° SE visible
03 Feb 5.6 20:38:10 10° NNW 20:40:20 13° N 20:40:20 13° N visible
04 Feb 6.4 04:53:39 14° SSW 04:57:12 18° S 05:03:47 10° SE visible
04 Feb 5.7 19:40:25 10° NNW 19:43:01 12° N 19:45:23 10° NNE visible
05 Feb 6.5 04:00:17 16° S 04:00:17 16° S 04:04:21 10° SE visible
05 Feb 6.7 05:59:05 10° SW 06:05:28 21° S 06:13:33 10° SE visible
05 Feb 5.2 20:46:05 10° NNW 20:49:44 20° N 20:49:44 20° N visible
06 Feb 6.5 05:02:29 10° SSW 05:07:11 17° S 05:13:08 10° SE visible
06 Feb 5.5 19:48:23 10° NNW 19:52:57 18° N 19:56:41 10° NE visible
06 Feb 6.2 21:51:53 10° NW 21:52:16 12° NW 21:52:16 12° NW visible
07 Feb 6.5 04:09:10 14° S 04:09:12 14° S 04:13:06 10° SSE visible
07 Feb 6.7 06:08:41 10° SSW 06:15:14 22° SSE 06:23:44 10° ESE visible
07 Feb 4.6 20:54:28 10° NW 20:59:15 32° N 20:59:15 32° N visible
08 Feb 6.5 05:12:19 10° SSW 05:17:06 17° SSE 05:23:07 10° SE visible
08 Feb 5.0 19:56:39 10° NW 20:02:47 28° NNE 20:06:16 16° ENE visible
08 Feb 6.1 22:00:52 10° WNW 22:01:51 15° WNW 22:01:51 15° WNW visible
